STARLINK-1401 (45684 NORAD) Tracking and Keplerian Element Data

This shows tracking and keplerian element data for the satellite.

Feedback or suggestion? Click here.




ElementValue
Catalog45684
NameSTARLINK-1401
Epoch Orbit182
Epoch Day191.91670139
Epoch Year2020
RAAN353.4898
Inclination52.9995
Eccentricity0.0001247
Argument of Perigee63.0565
Mean Anonmoly152.5674
Mean Motion15.62744783
Decay Rate0.0005801
L11 45684U 20035AD 20191.91670139 .00058010 00000-0 63504-3 0 9991
L22 45684 52.9995 353.4898 0001247 63.0565 152.5674 15.62744783 1825

Live tracking and technical data element details for STARLINK-1401 (NORAD 45684). STARLINK-1401 can be tracked NOW for your location showing map with azimuth and elevation plus other details from your city location.

Track the satellite on the map from your city or location and see movement details for azimuth, elevation, latitude, longitude, range, height, and movement on the map or in text.







IsCatalogInMostPopularTable: catalog: 45684, numindb: 8
Update: records affected: 1



GetName: 45684 STARLINK-1401

Hit Count: updated at: Fri, 10 Jul 2020 15:30:59 GMT